Flag for U.S.A. Weather past 2 weeks in Lansing, Michigan, U.S.A.

Now
57 °F

Partly sunny.


Feels Like: 54 °F
Forecast: 31 / 56 °F
Wind: 12 mph from North

Location: Capital City Airport

Current Time: Apr 26, 2015 at 3:26:39 PM

Latest Report: Apr 26, 2015 at 2:53 PM


Visibility: 10 mi

Pressure: 29.96 "Hg

Humidity: 33%

Dew point: 28 °F

Location of LansingLocation

Historic Weather in Lansing — Graph

°F

Lansing temperature yesterday

Maximum temperature yesterday: 56 °F (at 4:53 PM)
Minimum temperature yesterday: 38 °F (at 6:53 AM)
Average temperature yesterday: 46 °F

Past Weeks' High & Low Weather Summary

 TemperatureHumidityPressure
High76 °F (Apr 17, 3:53 PM)97% (Apr 20, 4:53 AM)30.38 "Hg (Apr 20, 4:53 AM)
Low26 °F (Apr 24, 3:53 AM)19% (Apr 15, 1:53 PM)29.17 "Hg (Apr 20, 4:53 AM)
Average49 °F55%29.96 "Hg
* Reported Apr 11 1:53 PM — Apr 26 1:53 PM, Lansing, Weather by CustomWeather, © 2015

Note: Actual official high and low records may vary slightly from our data, if they occured in-between our weather recording intervals... More about our weather records

Advertising

Lansing weather history for previous 24 hours

 ConditionsComfort  
Time TempWeatherWind HumidityBarometerVisibility
1:53 PM
Sun, Apr 26
55 °FPartly sunny.7 mph35%29.96 "Hg10 mi
12:53 PM52 °FPartly sunny.13 mph40%29.97 "Hg10 mi
11:53 AM52 °FSunny.10 mph41%29.98 "Hg10 mi
10:53 AM49 °FSunny.10 mph44%29.97 "Hg10 mi
9:53 AM45 °FSunny.9 mph53%29.96 "Hg10 mi
8:53 AM41 °FSunny.10 mph58%29.97 "Hg10 mi
7:53 AM35 °FSunny.5 mph70%29.96 "Hg10 mi
6:53 AM30 °FClear.5 mph82%29.95 "Hg10 mi
5:53 AM30 °FClear.5 mph82%29.93 "Hg10 mi
4:53 AM32 °FClear.No wind75%29.90 "Hg10 mi
3:53 AM33 °FClear.3 mph72%29.90 "Hg10 mi
2:53 AM34 °FClear.5 mph70%29.89 "Hg10 mi
1:53 AM35 °FClear.7 mph64%29.89 "Hg10 mi
12:53 AM37 °FClear.6 mph60%29.88 "Hg10 mi
11:53 PM
Sat, Apr 25
40 °FPassing clouds.12 mph55%29.88 "Hg10 mi
10:53 PM42 °FOvercast.14 mph53%29.87 "Hg10 mi
9:53 PM43 °FPassing clouds.13 mph53%29.85 "Hg10 mi
8:53 PM45 °FSunny.13 mph48%29.84 "Hg10 mi
7:53 PM49 °FSunny.14 mph41%29.82 "Hg10 mi
6:53 PM51 °FSunny.13 mph36%29.81 "Hg10 mi
5:53 PM55 °FSunny.12 mph34%29.80 "Hg10 mi
4:53 PM56 °FSunny.7 mph33%29.81 "Hg10 mi
3:53 PM55 °FSunny.9 mph39%29.82 "Hg10 mi
Weather by CustomWeather, © 2015

See weather overviewHow to use our weather pages